This is the latest recevied packets stored in our database for station/object DB0LER. If no packets are shown the sender has not sent any packets the latest 24 hours.

If you compare the raw packets with similar data from other websites it may differ (especially the path), the reason is that we are not collecting packets from the same APRS-IS servers. Each APRS-IS server performes duplicate filtering, and which packet that is considered to be a duplicate may differ depending on which APRS-IS server you receive your data from.

1620544862: DB0LER>APRX29,TCPIP*,qAC,DB0GW:T#002,246.000003815,246,420,,, Testing

1620544920: DB0LER>APRX29,DB0OL-10*,DB0PDF-10*,qAS,DB0OL-10:T#002,246.000003815,246,420,,, Testing

1620545189: DB0LER>APRX29,TCPIP*,qAC,DB0GW:T#066,246.000003815,246,417,,, Testing

1620545222: DB0LER>APRX29,TCPIP*,qAC,DB0GW:!5313.29N/00726.95E#APRS-Digi Leer

1620545251: DB0LER>APRX29,DB0PDF-10*,WIDE2-1,qAR,DB0EMS-5:T#066,246.000003815,246,417,,, Testing

1620545253: DB0LER>APRX29,DB0PDF-10*,WIDE2-1,qAR,DL5XL-10:!5313.29N/00726.95E#APRS-Digi Leer

1620545501: DB0LER>APRX29,TCPIP*,qAC,DB0GW:T#015,248.999996185,248,417,,, Testing

1620545862: DB0LER>APRX29,TCPIP*,qAC,DB0GW:T#059,247.999992371,247,414,,, Testing

1620546167: DB0LER>APRX29,TCPIP*,qAC,DB0GW:T#049,252.000007629,252,414,,, Testing

1620546213: DB0LER>APRX29,DB0PDF-10*,WIDE2-1,qAR,DB0EMS-5:T#049,252.000007629,252,414,,, Testing

1620546492: DB0LER>APRX29,TCPIP*,qAC,DB0GW:T#003,251.000003815,251,414,,, Testing

1620546502: DB0LER>APRX29,TCPIP*,qAC,DB0GW::DB0LER :EQNS.0,0.1,0,0,0.1,0,0,0.1,0

1620546502: DB0LER>APRX29,TCPIP*,qAC,DB0GW::DB0LER :UNIT.C,C,%

1620546502: DB0LER>APRX29,TCPIP*,qAC,DB0GW::DB0LER :PARM.Temp1,Temp2,Feuchte

1620546523: DB0LER>APRX29,DB0PDF-10,DB0OL-10*,qAO,DB0RNG:T#003,251.000003815,251,414,,, Testing

1620546851: DB0LER>APRX29,TCPIP*,qAC,DB0GW:T#016,252.999992371,252,414,,, Testing

1620546887: DB0LER>APRX29,DB0PBG-5,DB0PDF-10*,qAR,DB0EMS-5:T#016,252.999992371,252,414,,, Testing

1620546947: DB0LER>APRX29,TCPIP*,qAC,DB0GW:!5313.29N/00726.95E#APRS-Digi Leer

1620546978: DB0LER>APRX29,DB0PDF-10,DB0DAM*,qAR,DH6MP-10:!5313.29N/00726.95E#APRS-Digi Leer

1620547171: DB0LER>APRX29,TCPIP*,qAC,DB0GW:T#047,257.999992371,257,414,,, Testing

1620547502: DB0LER>APRX29,TCPIP*,qAC,DB0GW:T#099,258.999996185,258,412,,, Testing

1620547534: DB0LER>APRX29,DB0PDF-10,DB0OL-10*,qAR,DB0EMS-5:T#099,258.999996185,258,412,,, Testing

1620547837: DB0LER>APRX29,TCPIP*,qAC,DB0GW:T#047,257.999992371,257,409,,, Testing

1620548151: DB0LER>APRX29,TCPIP*,qAC,DB0GW:T#082,262.999992371,262,412,,, Testing

1620548183: DB0LER>APRX29,DB0PDF-10,DB0OL-10*,qAR,DB0EMS-5:T#082,262.999992371,262,412,,, Testing

Initial position
Current position
Ruler